Precipitable_Water
1.37 1.39 1.45 1.44 1.42 1.41 1.41 1.42 1.44 1.46 1.43 1.41 1.37 1.33 1.31 1.28 1.25 1.22 1.19 1.13 1.10 1.07 1.05 1.05 1.04 1.02 1.00 0.95 0.91 0.88 0.85 0.83 0.83 0.84 0.84 0.83 0.84 0.82 0.78 0.74 0.69 0.66 0.62 0.60 0.58 0.54 0.50 0.46 0.45 0.45 0.45 0.42 0.41 0.41 0.39 0.38 0.37 0.36 0.36 0.35 0.33 0.35 0.34 0.30 0.25 0.23 0.25 0.33 0.34 0.33 0.36 0.37 0.35 0.38 0.37 0.37 0.38 0.39 0.41 0.42 0.44 0.44 0.45 0.46 0.47
1.39 1.40 1.43 1.46 1.41 1.38 1.44 1.45 1.46 1.43 1.40 1.37 1.33 1.31 1.27 1.24 1.22 1.19 1.14 1.11 1.08 1.06 1.05 1.05 1.03 1.01 0.99 0.95 0.92 0.89 0.86 0.85 0.85 0.86 0.84 0.82 0.80 0.78 0.74 0.71 0.67 0.62 0.59 0.55 0.52 0.49 0.46 0.43 0.42 0.42 0.42 0.40 0.38 0.36 0.34 0.32 0.32 0.31 0.32 0.32 0.31 0.31 0.34 0.30 0.28 0.26 0.22 0.29 0.31 0.35 0.34 0.39 0.34 0.40 0.37 0.37 0.38 0.39 0.39 0.40 0.43 0.44 0.44 0.46 0.46
1.36 1.38 1.41 1.39 1.36 1.36 1.42 1.42 1.40 1.37 1.33 1.32 1.29 1.26 1.23 1.20 1.19 1.16 1.12 1.08 1.08 1.06 1.05 1.03 1.01 1.00 0.97 0.94 0.91 0.87 0.86 0.85 0.86 0.85 0.83 0.81 0.77 0.75 0.73 0.69 0.63 0.59 0.54 0.50 0.47 0.46 0.43 0.40 0.39 0.39 0.39 0.36 0.34 0.33 0.32 0.31 0.31 0.30 0.29 0.31 0.29 0.31 0.32 0.33 0.30 0.26 0.26 0.27 0.33 0.32 0.33 0.35 0.35 0.35 0.38 0.40 0.41 0.43 0.41 0.41 0.41 0.43 0.46 0.47 0.47
1.37 1.36 1.37 1.35 1.33 1.34 1.35 1.37 1.35 1.31 1.27 1.25 1.23 1.20 1.17 1.17 1.17 1.13 1.10 1.07 1.05 1.05 1.04 1.01 0.99 0.97 0.94 0.92 0.89 0.87 0.86 0.86 0.85 0.84 0.82 0.79 0.76 0.73 0.70 0.65 0.61 0.55 0.50 0.47 0.44 0.43 0.40 0.37 0.37 0.37 0.36 0.32 0.31 0.30 0.31 0.31 0.30 0.29 0.28 0.29 0.30 0.30 0.32 0.33 0.33 0.30 0.29 0.26 0.29 0.30 0.33 0.32 0.34 0.37 0.39 0.41 0.41 0.42 0.43 0.44 0.46 0.46 0.47 0.48 0.48
1.35 1.32 1.33 1.32 1.32 1.30 1.29 1.28 1.28 1.23 1.20 1.18 1.16 1.15 1.15 1.14 1.13 1.09 1.06 1.04 1.03 1.01 1.00 0.99 0.96 0.94 0.92 0.90 0.89 0.87 0.87 0.86 0.84 0.83 0.81 0.79 0.75 0.71 0.66 0.61 0.55 0.49 0.46 0.44 0.43 0.40 0.38 0.36 0.36 0.35 0.33 0.30 0.29 0.29 0.30 0.28 0.29 0.28 0.28 0.29 0.29 0.31 0.31 0.31 0.31 0.31 0.28 0.26 0.26 0.31 0.33 0.34 0.37 0.38 0.40 0.37 0.38 0.40 0.42 0.43 0.44 0.45 0.47 0.50 0.50
1.31 1.29 1.32 1.30 1.27 1.28 1.28 1.26 1.22 1.19 1.18 1.18 1.16 1.14 1.12 1.10 1.09 1.07 1.04 1.01 0.98 0.97 0.95 0.94 0.93 0.91 0.91 0.90 0.89 0.88 0.88 0.86 0.84 0.81 0.78 0.75 0.71 0.66 0.60 0.53 0.48 0.45 0.43 0.41 0.39 0.38 0.37 0.36 0.36 0.34 0.31 0.29 0.28 0.29 0.29 0.28 0.28 0.28 0.28 0.29 0.30 0.31 0.30 0.29 0.30 0.29 0.28 0.27 0.27 0.27 0.31 0.31 0.32 0.36 0.39 0.41 0.39 0.37 0.37 0.40 0.44 0.46 0.46 0.47 0.50
1.29 1.29 1.30 1.29 1.27 1.27 1.27 1.23 1.21 1.19 1.18 1.16 1.14 1.12 1.11 1.10 1.08 1.04 1.01 0.97 0.94 0.92 0.92 0.90 0.91 0.91 0.90 0.91 0.92 0.92 0.90 0.87 0.82 0.77 0.73 0.69 0.64 0.57 0.51 0.46 0.43 0.41 0.39 0.38 0.37 0.37 0.37 0.35 0.34 0.33 0.31 0.30 0.28 0.27 0.27 0.27 0.28 0.28 0.29 0.29 0.31 0.29 0.28 0.27 0.28 0.27 0.27 0.26 0.27 0.30 0.30 0.34 0.35 0.33 0.39 0.43 0.44 0.43 0.39 0.38 0.37 0.45 0.48 0.47 0.47
1.25 1.26 1.29 1.29 1.21 1.23 1.24 1.24 1.20 1.17 1.15 1.15 1.16 1.16 1.13 1.09 1.04 1.01 0.99 0.96 0.93 0.90 0.89 0.90 0.92 0.93 0.95 0.95 0.94 0.93 0.90 0.83 0.77 0.71 0.67 0.62 0.56 0.49 0.45 0.41 0.39 0.36 0.35 0.35 0.35 0.34 0.34 0.33 0.32 0.32 0.31 0.30 0.28 0.28 0.28 0.27 0.28 0.27 0.28 0.29 0.29 0.28 0.26 0.26 0.26 0.26 0.27 0.27 0.27 0.28 0.31 0.31 0.34 0.38 0.41 0.40 0.38 0.40 0.44 0.42 0.39 0.40 0.43 0.49 0.51
1.20 1.26 1.31 1.29 1.28 1.23 1.22 1.20 1.16 1.15 1.15 1.17 1.17 1.14 1.10 1.06 1.04 1.02 0.99 0.94 0.92 0.92 0.93 0.94 0.95 0.95 0.95 0.93 0.91 0.87 0.80 0.73 0.69 0.65 0.60 0.54 0.49 0.44 0.41 0.37 0.35 0.33 0.33 0.33 0.33 0.31 0.30 0.29 0.29 0.29 0.29 0.28 0.28 0.29 0.29 0.29 0.28 0.26 0.27 0.28 0.28 0.27 0.26 0.26 0.26 0.26 0.27 0.28 0.28 0.31 0.31 0.31 0.33 0.34 0.35 0.36 0.37 0.38 0.44 0.46 0.44 0.46 0.47 0.48 0.52
1.20 1.23 1.24 1.27 1.29 1.25 1.21 1.18 1.16 1.18 1.18 1.15 1.13 1.10 1.07 1.06 1.03 0.99 0.96 0.94 0.94 0.95 0.95 0.96 0.94 0.93 0.91 0.88 0.84 0.78 0.72 0.68 0.64 0.58 0.54 0.48 0.43 0.39 0.36 0.35 0.34 0.33 0.32 0.31 0.29 0.28 0.26 0.26 0.26 0.26 0.25 0.26 0.26 0.27 0.27 0.28 0.29 0.29 0.28 0.28 0.27 0.25 0.25 0.25 0.25 0.27 0.28 0.28 0.29 0.31 0.30 0.31 0.34 0.36 0.36 0.40 0.43 0.46 0.45 0.45 0.42 0.45 0.47 0.48 0.53
1.21 1.19 1.20 1.25 1.25 1.22 1.20 1.19 1.20 1.19 1.16 1.13 1.10 1.07 1.06 1.03 1.00 0.98 0.97 0.96 0.96 0.96 0.95 0.94 0.93 0.90 0.87 0.83 0.77 0.70 0.65 0.62 0.57 0.51 0.46 0.42 0.38 0.36 0.34 0.33 0.33 0.32 0.31 0.28 0.25 0.24 0.24 0.24 0.24 0.24 0.24 0.24 0.25 0.26 0.27 0.27 0.28 0.28 0.29 0.30 0.30 0.29 0.26 0.25 0.26 0.29 0.29 0.30 0.32 0.33 0.33 0.33 0.36 0.39 0.39 0.41 0.44 0.45 0.45 0.46 0.45 0.45 0.45 0.43 0.43
1.18 1.21 1.21 1.22 1.24 1.27 1.23 1.19 1.17 1.15 1.14 1.12 1.09 1.07 1.04 1.01 0.99 0.97 0.96 0.95 0.96 0.96 0.94 0.92 0.89 0.86 0.83 0.77 0.69 0.63 0.58 0.54 0.49 0.44 0.41 0.38 0.37 0.35 0.34 0.32 0.32 0.30 0.27 0.24 0.23 0.22 0.22 0.22 0.22 0.22 0.22 0.24 0.24 0.25 0.26 0.27 0.27 0.28 0.29 0.29 0.29 0.29 0.30 0.30 0.29 0.29 0.31 0.31 0.32 0.33 0.35 0.35 0.37 0.39 0.40 0.42 0.43 0.46 0.48 0.48 0.48 0.47 0.47 0.47 0.48
1.15 1.14 1.20 1.23 1.20 1.19 1.16 1.13 1.12 1.15 1.12 1.05 1.02 1.02 1.02 1.00 0.97 0.95 0.94 0.95 0.94 0.92 0.90 0.87 0.85 0.83 0.77 0.69 0.61 0.56 0.51 0.47 0.43 0.40 0.38 0.37 0.36 0.35 0.34 0.33 0.29 0.26 0.23 0.22 0.21 0.21 0.20 0.20 0.19 0.19 0.21 0.23 0.24 0.25 0.25 0.26 0.28 0.28 0.29 0.28 0.26 0.27 0.28 0.30 0.32 0.33 0.35 0.34 0.34 0.34 0.36 0.38 0.38 0.40 0.44 0.45 0.47 0.45 0.47 0.48 0.49 0.50 0.51 0.51 0.52
1.16 1.13 1.17 1.19 1.19 1.15 1.09 1.05 1.03 1.02 1.02 1.01 0.99 0.98 0.95 0.94 0.93 0.93 0.93 0.91 0.89 0.88 0.87 0.85 0.82 0.76 0.69 0.60 0.54 0.49 0.45 0.42 0.40 0.38 0.37 0.37 0.36 0.35 0.32 0.29 0.25 0.23 0.22 0.21 0.21 0.20 0.20 0.19 0.18 0.18 0.19 0.21 0.23 0.23 0.25 0.26 0.26 0.26 0.26 0.25 0.24 0.25 0.28 0.30 0.32 0.34 0.36 0.36 0.36 0.35 0.39 0.42 0.40 0.43 0.47 0.49 0.46 0.44 0.45 0.47 0.51 0.51 0.52 0.53 0.57
1.14 1.13 1.11 1.12 1.12 1.09 1.04 1.00 0.96 0.96 0.98 0.99 0.97 0.95 0.93 0.93 0.92 0.91 0.89 0.87 0.85 0.85 0.84 0.81 0.76 0.68 0.61 0.54 0.48 0.43 0.41 0.40 0.38 0.38 0.38 0.37 0.36 0.32 0.28 0.25 0.23 0.22 0.22 0.22 0.22 0.21 0.21 0.20 0.19 0.18 0.18 0.19 0.22 0.23 0.23 0.23 0.23 0.23 0.23 0.23 0.22 0.24 0.27 0.30 0.32 0.34 0.36 0.37 0.38 0.39 0.41 0.44 0.44 0.46 0.47 0.49 0.49 0.49 0.50 0.50 0.52 0.55 0.57 0.60 0.61
1.11 1.11 1.08 1.07 1.07 1.05 1.03 0.98 0.95 0.97 0.97 0.95 0.93 0.92 0.91 0.90 0.87 0.87 0.85 0.85 0.86 0.84 0.81 0.76 0.68 0.60 0.54 0.48 0.42 0.39 0.39 0.39 0.39 0.38 0.38 0.37 0.32 0.27 0.24 0.22 0.21 0.21 0.21 0.22 0.22 0.22 0.22 0.20 0.19 0.18 0.18 0.19 0.20 0.22 0.22 0.23 0.22 0.21 0.21 0.21 0.20 0.23 0.27 0.31 0.34 0.35 0.37 0.38 0.39 0.40 0.42 0.44 0.45 0.45 0.46 0.46 0.47 0.49 0.50 0.52 0.53 0.54 0.54 0.53 0.53
1.08 1.11 1.11 1.11 1.10 1.08 1.04 1.01 0.97 0.96 0.95 0.93 0.92 0.90 0.88 0.87 0.86 0.85 0.82 0.81 0.79 0.76 0.72 0.68 0.63 0.56 0.50 0.44 0.40 0.39 0.39 0.40 0.40 0.39 0.36 0.31 0.26 0.24 0.22 0.21 0.20 0.20 0.20 0.21 0.22 0.22 0.23 0.21 0.20 0.19 0.19 0.19 0.20 0.20 0.20 0.20 0.20 0.19 0.19 0.19 0.19 0.20 0.23 0.29 0.32 0.34 0.36 0.37 0.39 0.40 0.41 0.42 0.42 0.43 0.43 0.43 0.43 0.44 0.43 0.40 0.41 0.47 0.48 0.48 0.52
1.10 1.09 1.10 1.11 1.11 1.09 1.05 1.01 0.98 0.96 0.94 0.92 0.89 0.87 0.85 0.83 0.82 0.82 0.77 0.75 0.73 0.72 0.68 0.62 0.58 0.52 0.47 0.43 0.43 0.42 0.42 0.42 0.39 0.34 0.29 0.27 0.25 0.23 0.22 0.20 0.20 0.20 0.20 0.21 0.21 0.21 0.22 0.21 0.21 0.20 0.19 0.19 0.20 0.19 0.19 0.19 0.18 0.18 0.18 0.18 0.17 0.17 0.20 0.25 0.28 0.31 0.34 0.36 0.37 0.38 0.39 0.39 0.40 0.40 0.41 0.41 0.41 0.42 0.38 0.33 0.39 0.43 0.43 0.48 0.49
1.10 1.10 1.08 1.08 1.07 1.07 1.04 1.02 1.00 0.97 0.94 0.91 0.88 0.83 0.82 0.81 0.80 0.78 0.74 0.71 0.70 0.68 0.64 0.57 0.52 0.48 0.46 0.46 0.48 0.46 0.44 0.39 0.34 0.28 0.26 0.25 0.24 0.23 0.22 0.20 0.19 0.19 0.20 0.20 0.21 0.20 0.20 0.20 0.20 0.20 0.20 0.20 0.19 0.19 0.19 0.19 0.18 0.18 0.18 0.17 0.16 0.17 0.20 0.24 0.25 0.26 0.28 0.29 0.31 0.33 0.34 0.36 0.37 0.38 0.39 0.39 0.40 0.40 0.40 0.38 0.39 0.38 0.37 0.43 0.48
1.09 1.10 1.09 1.08 1.06 1.03 1.04 1.02 1.02 0.98 0.93 0.89 0.85 0.83 0.82 0.79 0.74 0.70 0.67 0.67 0.64 0.62 0.58 0.53 0.47 0.46 0.49 0.50 0.49 0.45 0.39 0.34 0.31 0.27 0.25 0.24 0.24 0.23 0.22 0.20 0.19 0.19 0.19 0.19 0.18 0.19 0.19 0.19 0.20 0.20 0.20 0.20 0.19 0.19 0.18 0.19 0.18 0.18 0.18 0.17 0.17 0.16 0.21 0.23 0.25 0.26 0.26 0.28 0.29 0.31 0.31 0.33 0.34 0.35 0.35 0.36 0.37 0.38 0.39 0.39 0.39 0.38 0.36 0.37 0.42
1.11 1.11 1.09 1.06 1.02 1.00 1.07 1.04 1.00 0.96 0.90 0.86 0.84 0.82 0.79 0.73 0.67 0.63 0.61 0.60 0.58 0.55 0.52 0.51 0.49 0.48 0.48 0.47 0.43 0.40 0.37 0.32 0.29 0.27 0.25 0.24 0.24 0.23 0.21 0.21 0.20 0.20 0.19 0.19 0.18 0.17 0.18 0.19 0.20 0.20 0.20 0.19 0.19 0.19 0.18 0.18 0.19 0.19 0.19 0.18 0.19 0.21 0.22 0.21 0.22 0.25 0.25 0.26 0.26 0.27 0.27 0.28 0.28 0.30 0.30 0.32 0.33 0.35 0.36 0.37 0.38 0.39 0.37 0.35 0.34
1.10 1.09 1.03 1.00 1.01 1.03 1.02 0.98 0.94 0.90 0.87 0.85 0.81 0.76 0.72 0.66 0.60 0.57 0.56 0.54 0.51 0.50 0.51 0.51 0.48 0.45 0.43 0.40 0.37 0.35 0.35 0.32 0.27 0.27 0.25 0.24 0.24 0.23 0.22 0.22 0.22 0.21 0.19 0.19 0.19 0.19 0.19 0.19 0.19 0.20 0.20 0.19 0.19 0.19 0.19 0.19 0.19 0.19 0.20 0.21 0.21 0.21 0.21 0.22 0.22 0.22 0.23 0.24 0.24 0.23 0.24 0.24 0.24 0.25 0.27 0.29 0.30 0.31 0.32 0.33 0.35 0.36 0.38 0.38 0.36
1.06 1.03 1.01 1.02 1.01 0.98 0.95 0.91 0.89 0.87 0.83 0.79 0.73 0.67 0.62 0.57 0.55 0.53 0.51 0.49 0.48 0.48 0.49 0.47 0.43 0.39 0.36 0.34 0.33 0.32 0.31 0.30 0.28 0.26 0.24 0.23 0.24 0.24 0.24 0.23 0.23 0.23 0.20 0.18 0.19 0.19 0.20 0.20 0.21 0.21 0.20 0.19 0.19 0.19 0.19 0.19 0.19 0.19 0.20 0.20 0.20 0.21 0.21 0.21 0.21 0.21 0.21 0.22 0.22 0.22 0.22 0.23 0.23 0.23 0.25 0.26 0.28 0.29 0.29 0.30 0.31 0.32 0.33 0.36 0.38
1.03 1.01 1.01 0.99 0.94 0.92 0.90 0.89 0.86 0.81 0.75 0.70 0.67 0.61 0.56 0.53 0.51 0.48 0.47 0.47 0.47 0.46 0.45 0.43 0.38 0.33 0.29 0.29 0.29 0.29 0.29 0.28 0.28 0.26 0.23 0.24 0.24 0.24 0.24 0.24 0.23 0.22 0.22 0.20 0.21 0.21 0.20 0.21 0.21 0.21 0.20 0.19 0.19 0.19 0.19 0.19 0.19 0.20 0.20 0.20 0.20 0.20 0.20 0.20 0.20 0.20 0.21 0.21 0.21 0.21 0.22 0.23 0.23 0.24 0.25 0.27 0.28 0.28 0.28 0.28 0.28 0.28 0.29 0.30 0.33
1.00 0.97 0.96 0.93 0.90 0.89 0.88 0.84 0.79 0.73 0.70 0.68 0.64 0.60 0.54 0.49 0.45 0.46 0.46 0.46 0.45 0.42 0.39 0.36 0.31 0.29 0.27 0.26 0.26 0.26 0.27 0.26 0.26 0.25 0.23 0.24 0.24 0.24 0.24 0.24 0.23 0.23 0.21 0.22 0.22 0.22 0.22 0.22 0.21 0.20 0.19 0.19 0.19 0.19 0.19 0.19 0.20 0.20 0.20 0.20 0.20 0.20 0.20 0.19 0.19 0.19 0.19 0.19 0.20 0.22 0.22 0.23 0.24 0.26 0.27 0.28 0.29 0.29 0.27 0.26 0.27 0.27 0.26 0.27 0.28
0.96 0.94 0.91 0.89 0.88 0.87 0.82 0.77 0.74 0.71 0.69 0.68 0.65 0.59 0.51 0.44 0.42 0.44 0.46 0.44 0.41 0.37 0.32 0.30 0.29 0.27 0.25 0.24 0.24 0.24 0.25 0.24 0.23 0.23 0.23 0.24 0.24 0.24 0.24 0.24 0.24 0.23 0.23 0.22 0.22 0.22 0.21 0.21 0.20 0.20 0.19 0.19 0.18 0.18 0.17 0.18 0.19 0.20 0.20 0.20 0.20 0.20 0.20 0.19 0.19 0.18 0.18 0.19 0.20 0.20 0.21 0.23 0.24 0.26 0.27 0.28 0.26 0.26 0.27 0.26 0.26 0.24 0.25 0.23 0.22
0.94 0.91 0.88 0.87 0.86 0.82 0.76 0.74 0.72 0.70 0.69 0.67 0.63 0.56 0.50 0.45 0.43 0.43 0.42 0.38 0.33 0.30 0.27 0.26 0.25 0.24 0.22 0.22 0.22 0.23 0.22 0.22 0.21 0.22 0.22 0.23 0.23 0.23 0.24 0.23 0.24 0.24 0.23 0.22 0.21 0.21 0.20 0.20 0.20 0.20 0.19 0.18 0.18 0.19 0.18 0.18 0.17 0.18 0.19 0.20 0.20 0.20 0.20 0.20 0.19 0.18 0.19 0.19 0.19 0.20 0.21 0.22 0.23 0.23 0.23 0.23 0.23 0.25 0.27 0.26 0.25 0.25 0.25 0.24 0.23
0.90 0.87 0.86 0.84 0.81 0.78 0.75 0.73 0.71 0.69 0.67 0.64 0.57 0.51 0.49 0.46 0.42 0.38 0.33 0.28 0.25 0.23 0.22 0.22 0.21 0.20 0.20 0.20 0.20 0.20 0.20 0.20 0.21 0.21 0.22 0.22 0.22 0.23 0.23 0.23 0.23 0.23 0.22 0.22 0.21 0.21 0.20 0.20 0.20 0.20 0.19 0.18 0.18 0.18 0.18 0.18 0.18 0.17 0.18 0.19 0.19 0.20 0.20 0.20 0.20 0.20 0.20 0.20 0.20 0.20 0.20 0.20 0.20 0.20 0.21 0.21 0.22 0.23 0.25 0.24 0.24 0.24 0.25 0.25 0.22
0.89 0.85 0.83 0.81 0.76 0.75 0.73 0.72 0.70 0.68 0.64 0.59 0.53 0.49 0.47 0.45 0.39 0.35 0.33 0.29 0.26 0.23 0.22 0.21 0.21 0.21 0.20 0.19 0.18 0.18 0.19 0.19 0.21 0.23 0.23 0.23 0.22 0.22 0.22 0.22 0.22 0.22 0.23 0.22 0.21 0.20 0.20 0.19 0.18 0.18 0.18 0.17 0.16 0.16 0.16 0.17 0.17 0.17 0.17 0.18 0.19 0.19 0.19 0.19 0.18 0.18 0.19 0.19 0.18 0.19 0.18 0.19 0.19 0.20 0.20 0.19 0.20 0.21 0.23 0.22 0.23 0.23 0.23 0.24 0.22
0.85 0.82 0.80 0.76 0.73 0.73 0.71 0.70 0.68 0.65 0.59 0.52 0.50 0.51 0.51 0.46 0.41 0.35 0.32 0.33 0.32 0.30 0.27 0.23 0.22 0.22 0.20 0.21 0.21 0.18 0.17 0.20 0.23 0.23 0.23 0.23 0.23 0.24 0.24 0.23 0.23 0.23 0.23 0.22 0.21 0.19 0.18 0.18 0.18 0.17 0.17 0.17 0.17 0.16 0.16 0.17 0.17 0.17 0.17 0.17 0.18 0.18 0.19 0.19 0.19 0.19 0.20 0.19 0.19 0.19 0.19 0.19 0.18 0.19 0.19 0.19 0.19 0.19 0.21 0.21 0.21 0.22 0.21 0.20 0.20
0.83 0.81 0.78 0.74 0.72 0.71 0.69 0.66 0.64 0.60 0.56 0.52 0.49 0.47 0.46 0.45 0.44 0.41 0.39 0.38 0.36 0.35 0.32 0.29 0.26 0.24 0.20 0.18 0.20 0.23 0.23 0.23 0.23 0.23 0.23 0.23 0.23 0.24 0.24 0.24 0.23 0.22 0.23 0.21 0.19 0.18 0.18 0.17 0.17 0.17 0.17 0.17 0.17 0.17 0.17 0.17 0.17 0.17 0.17 0.18 0.18 0.18 0.18 0.19 0.19 0.20 0.20 0.19 0.19 0.19 0.19 0.19 0.18 0.19 0.19 0.19 0.19 0.19 0.19 0.20 0.20 0.20 0.20 0.20 0.20
0.82 0.79 0.76 0.74 0.72 0.70 0.66 0.63 0.61 0.58 0.55 0.51 0.48 0.47 0.44 0.40 0.39 0.41 0.41 0.40 0.39 0.38 0.35 0.32 0.28 0.23 0.21 0.19 0.19 0.20 0.22 0.23 0.23 0.23 0.23 0.23 0.24 0.24 0.24 0.23 0.23 0.23 0.23 0.23 0.20 0.19 0.19 0.18 0.18 0.17 0.17 0.17 0.17 0.18 0.18 0.17 0.18 0.17 0.18 0.17 0.18 0.18 0.18 0.18 0.19 0.20 0.20 0.19 0.19 0.18 0.19 0.19 0.19 0.19 0.19 0.19 0.19 0.19 0.19 0.19 0.19 0.19 0.19 0.19 0.19
0.83 0.78 0.75 0.73 0.71 0.68 0.65 0.63 0.61 0.59 0.55 0.51 0.50 0.49 0.44 0.40 0.35 0.35 0.39 0.41 0.41 0.40 0.37 0.34 0.31 0.24 0.20 0.19 0.20 0.20 0.21 0.23 0.22 0.22 0.23 0.24 0.24 0.24 0.24 0.24 0.24 0.24 0.23 0.21 0.20 0.19 0.20 0.19 0.19 0.18 0.18 0.17 0.17 0.17 0.18 0.18 0.18 0.18 0.18 0.18 0.18 0.19 0.20 0.21 0.21 0.19 0.19 0.19 0.19 0.18 0.19 0.19 0.18 0.18 0.19 0.19 0.19 0.18 0.19 0.19 0.19 0.19 0.19 0.19 0.18
0.83 0.78 0.74 0.72 0.69 0.66 0.65 0.65 0.63 0.61 0.57 0.54 0.51 0.49 0.45 0.40 0.36 0.35 0.34 0.35 0.37 0.38 0.38 0.35 0.31 0.26 0.20 0.19 0.20 0.22 0.23 0.23 0.22 0.23 0.24 0.24 0.25 0.25 0.24 0.24 0.25 0.25 0.23 0.21 0.20 0.19 0.19 0.19 0.19 0.18 0.18 0.18 0.18 0.18 0.19 0.19 0.19 0.19 0.19 0.20 0.21 0.21 0.22 0.23 0.22 0.21 0.20 0.20 0.19 0.19 0.20 0.20 0.20 0.19 0.18 0.19 0.19 0.19 0.18 0.19 0.19 0.19 0.18 0.19 0.19
0.82 0.79 0.75 0.72 0.68 0.67 0.68 0.68 0.66 0.63 0.59 0.55 0.53 0.50 0.44 0.40 0.38 0.37 0.36 0.34 0.33 0.32 0.32 0.31 0.31 0.27 0.20 0.20 0.21 0.23 0.23 0.23 0.23 0.24 0.24 0.25 0.25 0.25 0.25 0.23 0.22 0.22 0.22 0.22 0.21 0.20 0.20 0.19 0.19 0.19 0.19 0.19 0.19 0.19 0.19 0.20 0.20 0.20 0.20 0.20 0.21 0.22 0.23 0.23 0.24 0.24 0.24 0.24 0.23 0.23 0.22 0.22 0.22 0.22 0.21 0.20 0.19 0.19 0.18 0.18 0.18 0.19 0.18 0.19 0.19
0.81 0.77 0.75 0.73 0.71 0.70 0.70 0.67 0.65 0.62 0.59 0.55 0.53 0.50 0.44 0.40 0.38 0.38 0.39 0.38 0.35 0.32 0.30 0.29 0.29 0.27 0.21 0.21 0.22 0.23 0.23 0.23 0.23 0.24 0.25 0.26 0.26 0.26 0.22 0.21 0.20 0.20 0.20 0.21 0.21 0.22 0.22 0.21 0.21 0.21 0.21 0.22 0.22 0.22 0.22 0.22 0.22 0.22 0.23 0.23 0.23 0.24 0.24 0.25 0.25 0.26 0.26 0.27 0.26 0.26 0.25 0.25 0.24 0.23 0.22 0.22 0.21 0.21 0.20 0.20 0.19 0.19 0.19 0.19 0.19
0.81 0.78 0.75 0.73 0.73 0.72 0.70 0.67 0.64 0.62 0.60 0.56 0.52 0.48 0.43 0.41 0.41 0.40 0.39 0.37 0.35 0.33 0.31 0.29 0.28 0.24 0.20 0.21 0.23 0.23 0.23 0.23 0.24 0.25 0.26 0.26 0.26 0.26 0.24 0.22 0.21 0.21 0.21 0.22 0.23 0.23 0.23 0.23 0.23 0.23 0.24 0.24 0.25 0.26 0.26 0.25 0.25 0.26 0.26 0.27 0.27 0.27 0.27 0.28 0.28 0.28 0.27 0.27 0.26 0.27 0.26 0.26 0.26 0.26 0.24 0.22 0.22 0.22 0.21 0.21 0.21 0.21 0.20 0.20 0.19
0.80 0.77 0.75 0.74 0.74 0.72 0.68 0.64 0.63 0.62 0.59 0.55 0.50 0.46 0.42 0.41 0.40 0.39 0.37 0.36 0.34 0.32 0.30 0.28 0.26 0.20 0.17 0.18 0.23 0.22 0.23 0.24 0.25 0.25 0.26 0.26 0.26 0.25 0.25 0.24 0.24 0.23 0.22 0.24 0.24 0.24 0.24 0.25 0.26 0.26 0.26 0.27 0.27 0.27 0.27 0.27 0.28 0.28 0.28 0.29 0.29 0.29 0.30 0.30 0.30 0.30 0.29 0.29 0.28 0.28 0.28 0.28 0.28 0.28 0.28 0.27 0.26 0.26 0.25 0.24 0.23 0.22 0.21 0.21 0.21
0.79 0.77 0.76 0.75 0.73 0.70 0.66 0.63 0.61 0.59 0.56 0.52 0.48 0.45 0.43 0.41 0.39 0.37 0.36 0.35 0.34 0.31 0.28 0.24 0.21 0.18 0.17 0.19 0.21 0.22 0.22 0.21 0.22 0.22 0.23 0.24 0.25 0.26 0.26 0.25 0.25 0.25 0.24 0.24 0.25 0.25 0.25 0.25 0.27 0.28 0.28 0.29 0.29 0.29 0.29 0.29 0.29 0.29 0.30 0.30 0.30 0.30 0.30 0.30 0.30 0.30 0.30 0.29 0.29 0.30 0.30 0.29 0.30 0.30 0.30 0.29 0.29 0.29 0.29 0.28 0.28 0.26 0.25 0.23 0.23
0.79 0.77 0.76 0.75 0.71 0.68 0.65 0.62 0.60 0.57 0.53 0.48 0.46 0.45 0.42 0.39 0.37 0.36 0.35 0.34 0.31 0.27 0.22 0.20 0.19 0.18 0.19 0.19 0.20 0.21 0.20 0.20 0.21 0.23 0.24 0.25 0.26 0.27 0.27 0.26 0.26 0.26 0.26 0.26 0.26 0.26 0.26 0.27 0.28 0.28 0.29 0.30 0.30 0.30 0.30 0.30 0.30 0.30 0.31 0.31 0.30 0.30 0.31 0.31 0.31 0.30 0.30 0.30 0.30 0.31 0.31 0.31 0.31 0.31 0.31 0.31 0.31 0.31 0.30 0.30 0.30 0.30 0.30 0.29 0.28
0.81 0.78 0.75 0.73 0.69 0.65 0.63 0.61 0.58 0.54 0.51 0.49 0.47 0.43 0.40 0.39 0.38 0.37 0.35 0.32 0.28 0.23 0.19 0.19 0.18 0.19 0.20 0.19 0.20 0.21 0.21 0.22 0.23 0.24 0.25 0.26 0.26 0.27 0.27 0.27 0.27 0.27 0.28 0.28 0.28 0.28 0.27 0.28 0.29 0.29 0.30 0.30 0.31 0.31 0.31 0.31 0.31 0.31 0.31 0.31 0.31 0.31 0.31 0.31 0.31 0.31 0.31 0.31 0.31 0.31 0.31 0.32 0.32 0.32 0.31 0.32 0.32 0.32 0.32 0.32 0.32 0.32 0.32 0.32 0.32
0.81 0.77 0.73 0.70 0.66 0.63 0.61 0.59 0.57 0.55 0.52 0.49 0.46 0.43 0.40 0.39 0.38 0.37 0.34 0.31 0.24 0.20 0.19 0.19 0.20 0.21 0.23 0.23 0.24 0.25 0.25 0.26 0.27 0.26 0.27 0.27 0.27 0.27 0.27 0.28 0.28 0.28 0.28 0.29 0.29 0.29 0.29 0.29 0.30 0.30 0.30 0.31 0.31 0.32 0.32 0.32 0.32 0.32 0.32 0.32 0.32 0.31 0.31 0.31 0.31 0.31 0.31 0.31 0.31 0.31 0.31 0.32 0.32 0.33 0.33 0.33 0.33 0.33 0.33 0.33 0.33 0.33 0.33 0.33 0.33
0.80 0.76 0.72 0.68 0.63 0.61 0.60 0.58 0.57 0.54 0.52 0.49 0.46 0.44 0.42 0.41 0.38 0.36 0.33 0.28 0.22 0.19 0.19 0.21 0.24 0.27 0.28 0.29 0.29 0.29 0.29 0.29 0.29 0.29 0.29 0.28 0.27 0.27 0.27 0.28 0.29 0.29 0.30 0.30 0.31 0.31 0.31 0.31 0.31 0.31 0.31 0.32 0.32 0.32 0.32 0.33 0.33 0.33 0.32 0.32 0.31 0.31 0.31 0.31 0.31 0.31 0.32 0.32 0.32 0.32 0.32 0.32 0.33 0.33 0.33 0.34 0.34 0.34 0.34 0.34 0.34 0.34 0.34 0.34 0.35
0.78 0.75 0.71 0.66 0.63 0.62 0.61 0.59 0.57 0.54 0.51 0.49 0.46 0.44 0.42 0.39 0.36 0.33 0.29 0.23 0.20 0.21 0.23 0.26 0.29 0.30 0.30 0.31 0.32 0.32 0.32 0.31 0.31 0.31 0.31 0.31 0.30 0.30 0.30 0.30 0.31 0.31 0.31 0.31 0.32 0.33 0.33 0.32 0.32 0.33 0.33 0.33 0.34 0.34 0.34 0.34 0.34 0.33 0.33 0.32 0.32 0.31 0.31 0.31 0.31 0.32 0.32 0.32 0.32 0.32 0.32 0.33 0.33 0.34 0.34 0.35 0.35 0.35 0.35 0.35 0.35 0.35 0.36 0.36 0.36
0.77 0.74 0.70 0.65 0.63 0.61 0.59 0.58 0.56 0.54 0.51 0.48 0.45 0.42 0.39 0.35 0.33 0.29 0.23 0.21 0.23 0.26 0.29 0.31 0.32 0.32 0.32 0.33 0.34 0.34 0.34 0.34 0.33 0.33 0.32 0.33 0.33 0.33 0.33 0.33 0.33 0.33 0.34 0.34 0.35 0.35 0.35 0.35 0.34 0.34 0.33 0.34 0.34 0.34 0.34 0.35 0.35 0.35 0.34 0.34 0.32 0.32 0.32 0.32 0.33 0.34 0.34 0.34 0.33 0.34 0.34 0.34 0.34 0.35 0.35 0.36 0.36 0.36 0.36 0.36 0.37 0.37 0.37 0.37 0.37
0.79 0.76 0.71 0.66 0.63 0.60 0.58 0.56 0.54 0.52 0.48 0.43 0.39 0.34 0.32 0.31 0.29 0.24 0.24 0.27 0.30 0.31 0.33 0.34 0.34 0.34 0.34 0.35 0.36 0.36 0.36 0.35 0.34 0.34 0.34 0.34 0.34 0.34 0.34 0.35 0.35 0.35 0.35 0.36 0.36 0.36 0.36 0.36 0.36 0.35 0.35 0.35 0.35 0.35 0.35 0.35 0.36 0.36 0.36 0.35 0.35 0.34 0.35 0.36 0.37 0.37 0.37 0.37 0.36 0.36 0.36 0.37 0.37 0.38 0.38 0.38 0.38 0.38 0.38 0.38 0.38 0.38 0.38 0.38 0.38
0.77 0.74 0.70 0.67 0.63 0.60 0.57 0.55 0.51 0.45 0.40 0.35 0.31 0.30 0.29 0.26 0.25 0.27 0.30 0.32 0.33 0.34 0.35 0.35 0.35 0.35 0.36 0.36 0.35 0.34 0.34 0.34 0.33 0.33 0.34 0.34 0.34 0.34 0.34 0.35 0.35 0.35 0.36 0.36 0.36 0.36 0.36 0.36 0.37 0.36 0.35 0.35 0.35 0.36 0.36 0.36 0.36 0.36 0.36 0.36 0.36 0.36 0.37 0.38 0.38 0.39 0.39 0.39 0.40 0.39 0.39 0.39 0.39 0.39 0.40 0.41 0.41 0.41 0.40 0.40 0.40 0.39 0.40 0.40 0.39
0.73 0.70 0.67 0.63 0.61 0.58 0.56 0.50 0.43 0.38 0.33 0.29 0.27 0.26 0.26 0.29 0.31 0.32 0.33 0.33 0.33 0.35 0.36 0.37 0.37 0.37 0.36 0.34 0.34 0.33 0.33 0.33 0.33 0.34 0.34 0.34 0.34 0.34 0.35 0.35 0.36 0.37 0.37 0.38 0.38 0.38 0.38 0.37 0.37 0.36 0.36 0.36 0.36 0.36 0.35 0.35 0.35 0.35 0.36 0.36 0.37 0.37 0.38 0.39 0.39 0.40 0.41 0.41 0.42 0.41 0.41 0.40 0.40 0.41 0.42 0.42 0.42 0.42 0.41 0.41 0.42 0.42 0.42 0.42 0.42
0.69 0.66 0.63 0.61 0.58 0.55 0.48 0.42 0.38 0.34 0.31 0.29 0.28 0.28 0.32 0.33 0.34 0.34 0.35 0.35 0.36 0.38 0.39 0.38 0.37 0.36 0.34 0.34 0.34 0.34 0.34 0.34 0.34 0.34 0.35 0.35 0.36 0.36 0.37 0.37 0.38 0.39 0.38 0.38 0.38 0.38 0.37 0.37 0.37 0.37 0.37 0.36 0.36 0.35 0.35 0.35 0.35 0.36 0.36 0.37 0.37 0.37 0.38 0.38 0.39 0.40 0.42 0.42 0.42 0.42 0.42 0.42 0.42 0.42 0.42 0.42 0.42 0.42 0.42 0.43 0.43 0.42 0.42 0.42 0.42
0.67 0.64 0.61 0.58 0.53 0.46 0.41 0.37 0.37 0.38 0.40 0.40 0.39 0.38 0.38 0.38 0.37 0.36 0.37 0.39 0.40 0.40 0.40 0.38 0.36 0.35 0.36 0.36 0.36 0.35 0.35 0.35 0.35 0.35 0.36 0.36 0.36 0.37 0.38 0.38 0.38 0.39 0.38 0.38 0.38 0.37 0.37 0.37 0.36 0.36 0.36 0.36 0.36 0.36 0.36 0.36 0.37 0.37 0.37 0.37 0.36 0.37 0.37 0.38 0.39 0.40 0.41 0.42 0.42 0.42 0.42 0.42 0.42 0.42 0.42 0.42 0.42 0.42 0.42 0.42 0.42 0.41 0.41 0.40 0.40
0.66 0.63 0.60 0.55 0.49 0.44 0.42 0.44 0.46 0.46 0.46 0.46 0.45 0.43 0.42 0.39 0.38 0.39 0.40 0.41 0.40 0.38 0.37 0.36 0.36 0.36 0.37 0.37 0.36 0.36 0.36 0.36 0.36 0.36 0.36 0.36 0.37 0.37 0.38 0.39 0.39 0.38 0.38 0.37 0.37 0.36 0.36 0.35 0.35 0.35 0.36 0.36 0.37 0.37 0.37 0.37 0.38 0.37 0.37 0.37 0.37 0.37 0.37 0.38 0.39 0.39 0.40 0.41 0.42 0.42 0.41 0.40 0.40 0.40 0.40 0.41 0.40 0.40 0.39 0.39 0.38 0.37 0.37 0.36 0.36
Wind_Speed
17 17 17 17 17 17 16 16 15 14 14 14 14 14 13 13 13 12 12 11 11 11 10 10 10 10 10 10 10 10 10 10 11 12 12 13 14 14 15 15 15 16 16 16 17 18 19 20 21 21 22 23 23 24 25 26 26 26 27 28 28 29 29 30 30 31 32 32 32 32 33 33 33 33 33 33 33 34 34 34 34 34 34 34 34
16 17 17 17 16 16 15 15 14 14 14 15 14 14 13 12 12 12 12 11 11 11 11 10 10 10 10 10 10 10 10 11 12 12 13 13 14 14 15 15 15 15 16 16 17 18 19 19 20 21 21 22 23 24 24 25 25 26 27 27 28 29 29 30 30 31 32 32 32 33 33 33 34 34 34 34 34 34 34 34 34 34 35 35 35
17 17 17 16 16 16 15 15 14 14 14 14 14 13 12 12 12 12 12 12 11 11 11 11 11 10 10 10 10 10 11 12 12 13 13 14 14 14 14 14 15 15 15 16 17 18 18 19 19 20 21 21 22 23 24 24 25 26 27 27 28 29 29 30 30 31 32 33 33 34 34 34 35 35 35 35 36 35 35 35 35 35 35 35 35
17 17 17 16 16 15 15 15 14 14 14 13 13 13 13 13 13 12 12 12 12 11 11 11 11 11 11 11 11 11 12 12 13 14 14 13 13 13 13 14 14 15 15 16 17 17 18 18 19 20 20 21 22 23 23 24 25 26 27 27 28 29 30 30 31 32 33 34 34 34 35 35 35 35 36 36 36 37 36 37 37 37 36 36 36
17 17 16 16 16 16 15 14 13 13 13 13 13 13 13 13 13 13 12 12 12 12 12 12 11 11 10 11 11 12 12 13 13 14 13 12 12 13 13 13 14 14 15 15 16 17 17 18 19 19 20 21 22 23 23 24 25 26 27 28 28 29 30 31 31 32 33 34 34 34 35 35 35 36 36 37 37 37 37 38 38 37 37 37 36
17 17 17 16 16 16 15 14 14 14 14 13 13 12 13 13 13 13 13 13 13 12 12 12 11 11 10 11 12 12 13 14 13 12 12 11 12 12 13 13 13 14 14 15 16 16 17 18 19 20 20 21 22 22 23 24 25 26 27 28 29 29 30 31 32 32 33 34 34 35 35 35 36 37 37 38 38 38 38 38 37 37 37 37 36
17 17 17 18 17 16 15 14 14 14 13 13 13 13 13 13 13 13 13 13 12 12 12 11 11 11 11 11 12 13 14 14 12 11 11 11 11 12 12 12 13 13 14 15 16 16 17 18 19 19 20 21 21 22 23 24 25 26 27 28 29 30 30 31 32 33 33 34 34 35 35 36 37 37 38 38 38 38 38 38 36 35 34 34 34
18 17 18 19 17 15 14 14 14 13 13 13 13 13 13 13 13 13 13 12 12 12 11 11 10 10 11 11 11 12 11 11 11 10 10 11 11 11 11 12 12 13 14 15 15 16 17 18 18 19 19 20 21 22 23 24 25 26 27 28 29 30 30 31 32 33 33 33 34 34 35 36 37 38 38 38 38 37 37 36 35 34 32 32 32
18 17 18 18 16 14 14 14 13 13 13 13 13 13 13 13 12 12 12 12 11 11 11 11 10 10 11 11 11 10 10 10 10 10 10 10 10 11 11 12 12 13 14 15 15 16 17 17 18 18 19 20 21 22 23 24 25 26 27 28 29 30 31 31 32 33 33 33 34 34 35 36 37 37 38 38 37 36 35 34 33 32 32 31 31
17 17 18 18 16 15 14 14 14 14 14 14 13 13 13 12 12 12 12 11 11 11 11 11 11 11 10 10 10 10 9 9 8 8 8 9 10 10 11 11 12 13 14 14 15 15 16 16 17 18 19 20 21 22 23 24 25 26 27 28 29 30 31 32 32 33 33 33 34 35 35 36 36 37 36 36 35 35 35 34 33 32 32 31 29
17 17 17 17 16 15 15 15 14 14 14 14 14 13 13 12 12 11 11 11 11 11 11 11 11 11 10 10 9 9 8 8 7 7 8 8 9 10 10 11 12 13 13 14 14 15 15 16 17 18 19 20 21 22 23 25 25 26 27 28 29 30 31 32 32 33 33 33 34 35 35 35 35 35 34 35 34 34 34 34 33 32 31 30 28
17 17 17 16 15 15 14 14 14 14 14 14 14 13 13 12 12 11 11 11 11 11 11 11 11 11 10 9 9 8 8 7 7 7 8 8 9 10 10 11 12 12 13 13 14 14 15 16 17 18 19 20 21 22 23 24 26 27 28 29 31 31 31 32 32 32 33 33 34 34 34 34 34 34 34 34 34 34 34 34 33 32 31 30 29
18 17 16 16 15 14 13 14 14 14 14 14 13 13 12 12 11 11 11 11 11 11 11 11 11 10 9 9 8 8 7 7 7 7 7 8 9 10 10 11 11 12 12 13 13 14 15 16 17 18 20 21 21 22 23 24 26 27 28 29 30 31 31 32 32 32 32 33 33 33 33 33 33 33 34 34 34 34 34 34 33 32 31 30 29
17 16 15 15 14 14 13 13 13 13 13 13 12 12 11 11 10 10 10 11 11 11 11 11 10 9 9 8 8 8 7 7 7 7 7 8 8 9 10 10 11 11 12 12 13 14 15 16 17 18 20 21 22 22 23 24 25 27 28 29 30 30 31 31 32 32 32 31 32 32 32 32 32 32 33 33 34 34 34 34 33 32 31 30 29
17 16 15 15 15 14 14 13 13 12 13 12 12 11 11 10 10 10 10 10 10 10 10 10 9 9 8 8 8 8 7 6 6 6 7 7 8 9 10 10 11 11 12 12 13 14 15 16 17 18 20 21 22 23 24 24 25 26 27 28 29 29 30 30 31 31 31 30 30 30 30 31 31 31 32 33 33 33 34 33 32 31 30 29 28
17 16 15 15 15 14 14 13 13 13 13 13 12 11 11 10 10 10 9 9 10 9 9 9 9 8 8 8 8 7 7 6 6 6 6 7 8 9 10 10 11 11 12 12 13 14 15 16 17 18 20 21 22 23 24 24 25 26 27 28 29 29 29 30 31 30 30 30 30 30 30 30 31 31 32 32 32 33 33 33 32 31 30 29 29
17 16 16 16 15 14 14 14 14 14 13 13 12 11 11 10 10 9 9 9 9 9 9 9 9 9 8 8 8 7 6 6 6 6 6 7 8 9 9 10 10 11 12 12 13 14 15 16 17 18 20 21 22 23 24 24 25 26 26 27 28 29 29 29 29 29 29 29 29 30 30 30 31 31 32 32 32 32 32 33 33 32 31 29 29
17 17 16 16 16 15 15 15 15 14 14 13 12 11 11 11 10 10 10 10 10 10 9 9 9 9 9 8 8 7 6 6 6 6 6 7 8 9 9 10 10 11 12 13 14 15 16 17 18 19 20 21 22 23 24 24 25 25 26 27 27 28 28 27 27 27 28 28 29 29 30 30 31 31 32 32 33 32 32 33 34 33 32 30 29
17 16 16 16 15 16 16 16 16 15 14 13 12 12 11 11 10 10 10 11 10 10 10 9 9 9 8 8 7 7 6 6 6 6 6 7 8 9 9 10 10 11 12 13 14 15 16 17 18 19 20 21 22 22 23 24 24 25 26 26 26 26 26 26 26 26 26 27 27 28 29 30 31 31 32 33 33 33 32 33 33 33 32 31 30
16 16 15 15 15 16 16 17 16 15 14 13 12 11 11 10 10 10 10 11 11 10 10 9 9 8 8 8 7 7 6 5 5 6 6 7 8 9 9 10 10 11 12 13 14 15 16 17 18 19 20 20 21 22 23 23 24 24 25 25 25 25 25 25 25 25 26 26 26 27 28 29 30 31 32 32 32 32 32 33 33 33 33 32 31
15 15 14 14 14 15 15 16 16 15 14 13 12 11 11 11 11 11 11 11 11 10 10 9 8 8 8 7 7 6 6 6 6 6 6 7 8 8 9 10 10 11 12 13 14 15 16 17 18 19 20 20 21 22 22 23 23 24 24 24 24 24 24 24 24 25 25 25 26 26 27 28 29 30 31 32 32 33 32 33 33 32 32 32 32
15 14 14 14 14 15 15 15 15 14 13 13 12 11 11 11 11 11 11 11 10 9 9 9 8 8 8 7 7 6 6 6 6 6 7 7 8 8 9 10 11 11 12 13 14 15 16 17 17 18 19 20 20 21 22 23 23 23 23 23 23 23 23 23 23 24 24 25 25 26 27 28 29 30 30 31 32 33 33 33 33 33 32 32 32
15 15 14 15 15 15 15 14 14 14 13 12 12 11 11 11 11 11 11 10 10 9 9 9 9 8 8 7 6 6 6 6 6 7 7 7 8 9 9 10 11 12 12 13 14 15 16 16 17 18 19 19 20 20 21 22 22 23 23 23 23 23 22 22 23 23 24 24 25 25 26 27 28 29 30 30 31 32 33 33 33 33 33 32 32
15 15 16 16 16 15 15 14 14 14 13 12 11 11 11 11 11 10 10 10 9 9 9 9 9 9 8 7 7 7 7 7 7 7 7 8 8 9 10 10 11 12 13 13 14 15 15 16 17 17 18 19 19 20 21 21 22 22 22 22 22 22 21 21 22 23 23 24 24 25 25 26 27 28 29 30 30 32 32 33 33 34 33 33 32
16 17 17 16 16 15 14 14 14 14 13 12 12 12 12 11 11 11 10 10 10 10 10 10 9 9 8 7 7 7 7 7 8 8 8 8 9 10 10 11 11 12 13 13 14 15 15 15 16 17 17 18 19 19 20 21 21 21 21 21 21 20 20 21 21 22 22 23 23 24 25 25 26 27 28 29 30 31 31 32 32 33 33 33 32
17 18 17 16 16 15 15 14 14 14 13 13 12 12 12 12 11 11 10 10 10 10 10 10 10 9 8 8 8 8 8 8 8 8 9 9 9 10 10 11 11 12 13 13 14 14 14 15 16 16 17 18 18 19 19 20 20 20 20 20 20 19 20 20 21 21 22 22 23 23 24 25 25 26 27 28 29 29 30 30 31 32 32 32 32
18 18 17 16 16 16 15 15 14 14 14 13 13 13 12 12 12 11 11 11 11 11 11 10 10 10 9 9 9 8 8 9 9 9 9 9 10 10 11 11 12 12 13 13 14 14 14 14 15 16 17 17 18 18 18 19 19 19 19 19 19 19 19 20 20 20 21 21 22 23 24 24 25 26 26 27 28 28 29 29 30 31 31 31 31
19 18 17 17 16 16 16 16 15 14 14 14 14 13 13 12 12 12 12 11 11 11 11 11 11 10 10 10 9 9 9 9 9 9 10 10 10 11 11 11 12 12 13 13 13 13 14 14 15 15 16 17 17 17 17 17 18 18 18 18 18 18 19 19 20 20 20 21 22 22 23 24 24 25 26 26 27 28 28 29 29 30 30 30 31
19 18 17 17 17 16 16 16 15 15 14 14 14 14 13 13 12 12 12 12 11 11 11 11 11 10 10 10 10 10 10 10 10 10 10 10 10 11 11 12 12 12 12 13 13 13 13 14 14 15 16 16 16 17 17 17 17 17 18 17 17 18 18 19 19 19 20 20 21 22 23 23 24 24 25 26 26 27 28 28 29 29 29 29 30
19 18 18 17 17 17 17 16 16 15 15 15 14 14 13 13 12 12 12 12 11 11 10 10 10 10 10 11 11 10 10 10 10 10 10 10 11 11 12 12 12 12 12 12 12 13 13 14 14 15 15 16 16 16 16 16 17 17 17 17 17 18 18 19 19 19 20 20 21 22 22 23 23 24 25 25 26 26 27 27 28 28 29 29 29
19 19 18 18 18 18 17 17 16 16 15 15 15 14 14 13 12 12 12 12 11 11 10 10 10 10 10 10 11 11 10 10 10 10 10 10 11 11 12 12 12 12 12 12 12 12 13 13 14 15 15 15 16 16 16 16 16 17 17 17 17 18 18 19 19 19 20 20 21 22 22 23 23 24 24 25 25 26 26 27 27 28 28 28 28
20 19 19 19 19 18 18 17 17 16 16 16 15 15 15 14 13 12 12 12 12 11 10 10 10 10 10 10 11 11 10 10 10 10 10 11 11 11 12 12 11 11 12 12 12 13 13 13 14 15 15 15 15 15 15 16 16 16 17 17 18 18 19 19 19 20 20 21 21 22 22 23 23 24 24 24 25 25 26 26 27 27 27 28 28
20 20 20 19 19 19 18 18 17 17 16 16 16 16 15 15 14 13 13 12 12 12 11 11 10 11 11 11 11 11 10 10 10 10 10 11 11 11 11 11 11 11 12 12 12 13 13 14 14 15 15 15 15 15 15 16 16 16 17 17 18 19 19 20 20 20 21 21 22 22 23 23 24 24 24 24 25 25 26 26 26 27 27 27 27
21 21 21 20 20 19 19 18 18 17 17 16 16 16 16 16 15 14 13 13 12 12 12 12 11 11 11 11 11 11 10 10 10 10 10 11 11 11 11 11 12 12 12 13 13 13 14 14 15 15 15 16 16 16 16 16 16 17 17 18 18 19 19 20 21 21 21 22 22 23 23 24 24 24 25 25 25 25 25 26 26 26 26 26 27
21 22 21 21 20 20 19 19 18 18 17 17 17 16 16 16 15 15 14 13 13 13 13 12 12 12 12 12 11 11 10 10 10 10 11 11 11 11 11 12 12 12 13 13 13 13 14 14 15 15 15 15 16 16 16 16 17 17 17 18 19 19 20 20 21 21 22 22 23 24 24 25 25 25 25 25 25 26 26 26 26 26 26 26 26
22 22 22 21 21 20 20 19 19 18 18 17 17 17 17 17 16 16 15 15 14 14 13 13 13 12 12 12 12 11 11 11 11 11 11 11 11 11 12 12 12 13 13 13 13 13 14 14 15 15 15 15 16 16 16 17 17 17 18 18 19 20 20 21 21 22 22 23 23 24 25 25 26 26 26 26 26 26 26 26 26 26 26 26 26
23 23 22 22 21 21 20 20 19 18 18 18 17 17 17 17 17 16 16 15 15 14 14 14 14 13 13 13 12 12 12 12 12 12 12 12 12 12 12 12 12 13 13 13 13 13 14 14 15 15 15 15 16 16 16 17 17 18 18 19 19 20 21 22 22 23 23 23 24 24 25 26 26 26 26 27 27 26 26 26 26 26 27 27 26
23 23 23 23 22 21 21 20 20 19 18 18 18 18 18 18 17 16 16 15 15 15 15 15 14 14 14 13 13 12 12 12 12 12 12 12 12 12 13 13 13 13 13 14 14 14 14 15 15 15 15 15 16 16 17 17 18 18 19 19 20 21 22 22 23 23 24 24 25 25 26 26 26 27 27 27 27 27 27 27 27 27 27 27 27
23 23 23 23 23 22 22 21 20 20 19 19 19 19 18 18 17 17 16 16 15 15 15 15 15 15 14 13 13 13 13 13 13 13 13 13 13 13 13 14 14 14 14 14 15 15 15 15 16 16 16 16 16 17 17 18 18 19 20 20 21 22 23 23 24 24 24 25 25 26 26 27 27 27 27 27 27 27 27 27 27 27 27 27 27
23 23 23 23 23 23 22 22 21 21 20 20 19 19 19 18 18 17 17 16 16 16 16 15 15 15 14 14 14 14 14 14 14 13 13 14 14 14 14 14 15 15 15 15 16 16 16 16 16 17 17 17 17 18 18 19 19 20 21 21 22 23 23 24 24 25 25 26 26 27 27 28 28 28 28 28 28 28 28 28 27 27 27 27 27
24 24 24 24 23 23 23 23 22 22 21 21 20 20 19 19 18 18 17 17 16 16 16 15 15 14 14 14 14 14 14 14 14 14 14 14 15 15 15 15 16 16 16 16 17 17 17 17 17 17 18 18 18 19 20 20 21 21 22 22 23 24 25 25 26 26 27 27 28 28 28 29 29 29 29 30 29 29 28 28 28 28 28 28 28
23 24 24 24 24 23 23 23 23 23 22 21 21 21 20 20 19 18 18 17 17 16 16 15 14 14 14 14 14 14 14 14 14 14 15 15 16 16 16 16 16 16 17 17 17 18 18 18 18 18 18 18 19 20 21 21 22 22 23 24 25 25 26 26 27 28 28 29 29 29 30 30 30 30 30 31 31 30 30 30 30 30 29 29 29
24 24 24 24 24 24 24 24 24 23 23 22 22 22 21 21 20 19 18 17 17 17 16 15 15 14 14 14 14 14 14 14 14 15 15 16 16 16 16 16 16 17 17 18 18 19 19 19 19 19 19 20 20 21 22 23 23 24 24 25 26 27 27 28 29 29 30 30 30 30 31 31 31 31 31 32 32 31 31 31 31 31 31 31 31
23 24 24 24 24 24 25 25 24 24 24 23 23 23 22 22 20 19 19 18 18 17 16 16 15 15 15 16 15 15 15 15 15 16 16 16 16 16 16 16 17 17 18 19 19 20 20 20 20 20 20 21 22 23 24 24 25 25 26 26 27 28 28 29 30 30 31 31 31 32 32 32 32 32 33 33 33 33 33 33 33 33 32 32 32
24 24 25 25 25 25 25 25 24 24 24 24 24 24 23 22 21 20 19 18 18 18 17 16 16 17 17 17 16 16 16 16 16 16 16 16 16 16 16 17 17 18 19 20 20 20 21 21 21 21 21 22 23 24 24 25 25 26 26 27 28 28 29 30 31 32 32 32 32 33 33 33 33 34 34 34 34 34 34 34 34 34 34 34 34
24 24 25 25 26 26 26 25 25 25 25 25 24 24 24 23 22 21 20 19 19 18 17 17 17 18 17 17 17 17 16 17 17 17 17 17 17 17 17 18 19 20 20 21 21 21 22 22 22 22 22 23 24 24 24 25 25 26 27 27 28 29 30 31 32 33 33 33 33 33 34 34 35 35 35 35 35 35 35 35 35 35 35 35 35
24 24 24 24 25 25 25 25 25 25 25 25 24 24 23 23 22 21 20 20 19 19 19 19 18 18 18 17 17 17 17 17 17 17 18 18 18 18 19 19 20 20 21 21 22 22 22 22 22 22 23 23 24 24 24 25 26 26 27 28 29 30 31 32 32 33 33 34 34 35 35 36 36 36 36 36 36 36 36 36 36 36 36 37 37
25 24 24 24 24 24 24 24 24 24 24 24 24 24 23 23 22 21 21 20 20 20 20 20 19 19 18 18 18 17 17 18 18 18 18 18 18 19 20 20 20 21 21 21 22 22 22 22 21 22 22 23 23 24 25 25 26 27 28 29 30 31 32 32 33 34 34 35 36 36 37 37 37 37 37 37 38 38 38 38 38 39 39 39 39
26 26 25 25 25 25 24 24 23 23 23 24 24 24 23 23 23 22 21 21 21 20 20 20 19 19 18 18 18 18 18 18 18 18 18 18 19 20 20 20 21 21 21 21 21 21 21 21 21 21 22 22 23 24 25 26 27 28 29 30 31 32 33 34 34 35 36 37 37 38 38 38 39 39 39 39 39 40 40 40 41 41 41 41 42
26 27 26 26 25 25 25 24 23 23 23 23 24 24 24 23 23 22 22 21 21 20 20 19 19 19 19 19 18 18 18 19 19 19 19 19 20 20 20 20 20 20 20 21 21 22 21 21 21 22 22 23 24 25 26 27 28 29 30 32 33 34 35 35 36 37 38 39 39 40 40 40 40 40 41 41 41 41 42 42 43 43 43 44 44
26 26 26 25 25 25 25 24 23 23 23 23 24 24 23 23 23 22 22 21 21 20 20 20 19 19 19 19 19 19 19 19 19 19 19 20 20 20 20 20 20 21 21 21 22 22 22 22 22 23 23 24 25 26 27 28 30 31 32 34 35 35 36 37 38 39 39 40 41 42 42 42 42 42 42 42 43 43 43 44 44 44 45 45 45
Wind_Direction
210 211 211 206 204 206 207 207 206 207 207 206 207 208 210 212 216 221 227 232 238 243 249 256 262 266 268 270 273 277 281 285 290 293 295 297 299 301 303 305 307 309 310 311 312 314 316 318 319 320 320 321 322 323 323 324 324 325 326 326 327 326 326 324 323 322 323 323 322 322 321 320 320 319 318 316 314 313 310 308 306 303 301 298 296
208 206 205 204 202 202 205 204 204 205 205 204 206 209 212 215 220 226 229 234 240 245 250 256 262 265 268 272 275 280 284 288 292 294 296 298 300 302 303 306 308 309 310 312 314 316 318 319 320 321 322 323 325 325 327 328 328 329 330 330 330 330 328 327 325 324 324 325 325 324 323 322 321 320 319 317 316 314 312 309 307 305 302 299 297
204 201 201 201 200 202 205 202 201 204 204 204 208 212 216 220 224 228 231 235 241 247 253 257 261 265 269 273 278 282 287 291 293 296 297 299 301 302 304 306 308 309 311 314 316 318 319 321 322 323 324 325 327 329 330 331 332 332 333 333 332 332 331 330 328 327 326 326 326 325 325 324 322 321 321 319 317 316 314 312 310 307 304 301 298
201 199 200 200 200 202 202 198 198 203 205 208 212 215 218 222 226 231 233 238 244 249 254 257 260 264 269 274 279 283 288 292 295 297 298 299 301 303 305 307 308 311 313 316 317 318 320 322 324 325 325 328 330 331 332 333 334 335 335 335 334 333 333 332 331 329 327 327 327 327 326 325 324 323 322 321 319 318 316 313 311 309 307 304 301
202 201 199 199 199 198 197 197 199 204 206 210 213 215 220 224 229 234 238 242 247 251 254 257 260 265 269 274 279 283 287 291 295 297 297 298 301 304 306 308 311 314 315 317 318 319 321 323 325 326 327 330 331 332 333 335 335 336 336 336 336 335 335 334 333 331 330 329 329 328 328 327 326 325 324 323 321 320 317 315 313 311 309 306 304
204 203 201 200 198 195 195 199 203 204 207 211 215 220 225 230 235 239 242 246 249 252 255 257 261 265 269 274 279 283 286 289 292 294 295 298 301 304 308 311 313 315 315 317 319 321 323 325 326 327 329 331 332 333 334 336 336 336 337 337 336 336 336 335 334 334 333 332 331 331 330 330 329 328 328 326 323 321 319 317 315 313 311 308 306
207 206 205 201 198 196 197 201 204 206 211 216 222 226 231 235 239 243 246 248 250 252 254 257 262 266 270 276 283 285 286 286 287 289 293 298 301 305 309 312 314 315 316 318 320 323 325 326 328 329 330 332 333 334 335 336 337 337 337 337 337 337 337 337 337 336 335 334 334 333 332 332 332 331 330 329 326 324 322 320 317 316 314 312 310
208 208 206 200 197 199 202 205 207 212 217 221 225 230 235 239 242 244 246 247 248 250 251 254 262 269 274 281 286 286 285 284 284 286 292 298 302 307 310 312 313 315 317 320 323 325 327 328 330 331 333 334 335 336 336 337 338 338 338 338 338 339 339 339 338 338 337 336 336 335 335 335 334 333 333 332 330 328 327 324 322 320 319 318 315
208 206 205 201 200 204 208 210 213 217 219 222 226 232 237 239 240 241 243 244 245 246 248 253 262 272 279 283 284 283 281 282 283 286 292 298 303 307 309 311 314 316 319 322 325 327 329 331 333 335 336 337 337 337 338 339 339 339 339 340 340 341 340 340 339 339 338 338 339 338 338 337 337 336 336 335 334 332 331 330 327 326 324 323 321
210 207 205 203 205 210 214 216 218 219 220 223 227 232 235 236 236 237 239 241 242 245 249 256 265 275 279 279 280 279 279 279 282 287 294 299 302 305 308 312 315 318 321 324 327 329 331 333 336 338 339 338 339 339 340 340 341 341 341 341 342 342 341 341 341 341 341 341 341 340 340 340 340 340 339 339 338 337 336 334 332 331 329 327 325
212 208 205 206 211 214 217 219 219 221 224 227 228 230 233 233 233 234 237 240 243 248 252 257 265 272 274 274 274 274 275 277 282 287 294 299 302 305 310 314 317 321 324 327 328 331 334 336 337 339 339 339 339 340 341 341 342 343 343 343 342 342 342 342 342 342 343 343 343 343 343 343 343 343 343 343 343 342 340 339 337 335 334 332 329
211 209 209 211 214 215 218 221 223 226 230 230 229 229 231 232 234 235 237 240 243 246 249 253 261 265 266 268 270 270 271 275 280 287 294 299 303 307 312 316 320 323 326 329 331 334 336 337 338 340 341 341 341 341 341 342 343 344 344 343 343 343 343 343 342 343 344 344 345 346 346 346 346 347 347 347 346 345 344 344 342 340 338 336 334
212 213 215 216 217 218 221 225 228 230 231 232 230 229 229 233 236 237 237 239 240 242 246 252 257 259 261 264 265 266 270 273 280 288 295 301 307 310 314 318 321 325 328 331 334 337 338 339 340 341 342 343 343 342 341 342 342 343 344 344 345 346 346 345 345 345 346 346 347 348 349 349 349 350 350 349 348 348 348 348 347 345 343 342 340
212 216 218 219 220 222 225 227 228 228 227 227 226 225 226 229 232 234 236 238 239 241 245 249 251 255 259 261 261 264 270 273 279 288 296 304 310 313 315 319 323 326 330 334 336 338 339 340 341 343 343 344 344 343 342 342 343 344 344 345 346 347 347 348 348 348 349 349 350 350 351 352 352 352 353 352 352 352 351 351 351 349 348 346 345
214 217 219 221 222 225 226 227 225 221 219 219 220 222 225 227 229 234 238 239 238 237 239 242 246 251 256 258 259 265 270 271 277 287 297 305 311 314 317 320 324 327 332 335 337 339 340 340 342 343 344 344 344 344 344 344 345 345 346 347 348 348 349 349 350 351 352 352 353 353 354 355 355 356 356 356 356 356 355 355 355 353 352 351 351
217 219 220 222 223 224 224 223 219 215 214 215 217 220 223 226 230 234 237 237 234 232 236 241 245 248 251 256 259 262 265 266 272 284 295 304 310 314 317 321 325 329 333 335 337 339 340 341 342 344 344 344 345 345 346 346 347 347 348 348 349 350 350 352 353 354 356 356 357 358 358 358 359 359 359 360 360 359 360 360 360 359 357 357 356
218 220 221 221 222 223 223 221 216 214 214 215 214 216 220 226 231 235 236 234 230 231 236 241 245 247 250 254 255 255 258 263 270 281 293 303 309 313 317 322 326 329 332 334 336 338 341 342 343 343 344 344 345 346 347 348 349 349 349 350 351 352 353 354 356 358 359 0 1 1 1 2 2 2 3 3 3 3 3 4 4 3 2 1 360
218 221 222 222 224 225 223 219 215 214 213 211 211 216 222 228 232 235 236 232 229 232 237 241 246 249 250 249 249 250 255 262 269 281 294 304 309 313 318 322 325 328 331 334 335 337 341 344 344 343 343 344 345 347 349 350 350 351 351 351 352 354 356 357 359 0 2 3 3 4 4 5 5 6 6 6 6 7 7 7 7 7 6 5 2
220 223 224 224 225 225 222 216 213 211 210 210 215 221 226 230 233 233 233 232 230 234 239 242 245 247 246 245 245 248 255 263 272 283 295 304 310 314 317 320 324 326 329 333 335 337 340 343 344 344 343 344 346 349 350 350 351 351 352 352 354 356 357 358 360 1 3 4 5 6 7 7 8 8 8 8 9 9 10 10 10 10 10 8 6
221 223 225 225 225 226 221 212 208 208 210 215 222 227 229 232 232 230 230 232 233 236 239 241 241 242 241 242 244 250 257 267 276 284 293 303 310 314 316 318 321 324 328 332 334 336 339 340 342 344 344 345 347 349 350 351 351 352 353 355 356 358 359 360 1 2 3 5 6 7 8 9 10 10 10 10 10 11 11 12 12 13 13 12 11
219 220 224 225 224 220 213 205 204 210 216 220 225 229 231 231 228 227 229 232 233 234 235 236 237 236 236 239 245 253 259 268 278 285 294 304 311 313 314 316 319 323 327 330 332 335 338 339 341 343 344 345 347 349 350 351 352 352 354 356 357 358 360 1 2 3 4 6 7 8 9 10 11 12 13 13 13 13 13 13 14 14 15 15 15
217 219 221 219 214 207 203 203 209 215 219 222 224 227 228 227 226 227 228 229 228 227 228 231 231 230 232 238 246 254 260 268 278 286 294 303 310 312 313 315 317 321 326 329 332 334 336 338 340 342 343 345 347 348 350 350 351 353 354 356 357 359 1 2 3 4 5 7 8 9 10 10 12 13 14 15 15 15 15 15 15 15 16 16 16
217 218 216 211 206 204 204 208 214 218 220 222 222 222 222 223 224 225 225 223 222 223 226 228 227 226 231 238 247 256 263 269 278 286 293 301 307 310 312 315 318 322 325 328 330 333 335 337 339 341 344 346 347 348 349 350 351 352 354 356 358 359 0 2 3 5 6 7 8 9 10 11 12 13 14 15 15 16 16 16 16 16 17 17 17
216 214 210 206 205 206 209 212 216 218 219 219 219 219 219 220 221 222 221 220 221 224 226 226 226 227 232 238 246 256 264 270 277 284 291 297 303 308 312 315 318 322 325 327 329 332 335 337 339 341 344 345 346 347 348 350 351 353 354 356 357 359 -0 1 3 4 5 6 7 8 9 10 11 12 13 13 14 14 15 16 16 17 18 18 18
213 208 205 205 206 208 211 215 217 217 217 218 218 218 218 218 217 218 220 222 225 227 227 226 227 230 234 239 246 255 263 270 276 282 288 294 301 307 311 315 318 321 324 326 329 332 335 338 340 342 343 345 346 347 347 349 350 352 354 356 357 358 359 1 2 3 4 5 6 7 7 8 9 10 11 11 13 13 14 15 16 17 17 18 19
207 204 204 207 209 210 212 215 216 216 218 220 221 221 219 216 215 217 221 226 229 229 226 225 228 233 237 241 247 254 261 267 273 280 286 292 299 306 310 314 317 320 323 325 328 332 336 338 339 341 342 343 345 346 346 348 349 351 354 355 356 357 358 360 1 2 3 4 4 5 6 6 7 7 8 9 11 12 13 14 15 16 17 17 19
206 205 207 209 211 212 213 214 215 217 218 220 222 222 221 218 217 221 225 227 228 227 226 227 229 233 238 243 248 254 259 265 271 278 285 291 298 304 309 312 315 318 321 324 327 331 335 336 338 339 340 341 343 344 346 348 349 351 352 354 355 356 357 359 360 1 2 2 2 3 3 4 5 6 7 7 9 9 10 11 13 14 15 16 17
207 207 210 210 211 212 213 213 214 217 219 220 221 220 220 220 223 226 227 227 225 225 227 230 232 235 239 244 249 254 258 263 269 275 282 289 297 303 308 311 314 316 318 321 326 330 332 334 335 337 339 340 341 343 345 347 349 350 351 353 354 355 356 357 358 359 359 359 360 0 1 1 2 4 4 5 6 7 8 9 10 11 12 14 15
208 209 210 210 210 212 213 214 215 216 218 219 220 221 222 224 226 229 230 230 229 228 230 234 237 240 244 247 251 256 259 264 268 273 280 288 295 301 306 310 312 314 316 319 323 327 329 330 332 334 336 338 340 342 344 345 347 349 350 351 352 353 353 354 355 356 356 356 357 357 358 359 360 1 2 3 4 4 5 6 7 8 9 11 12
209 210 210 210 211 212 212 213 215 216 217 217 218 220 224 226 230 232 230 229 230 231 236 240 241 244 248 252 255 259 263 266 268 272 280 287 293 298 303 306 309 312 314 318 322 324 326 327 329 331 333 336 338 340 342 343 345 346 348 349 349 350 350 351 351 352 352 353 353 354 355 355 356 357 358 359 0 1 2 3 4 5 6 7 8
211 211 211 210 211 212 212 213 215 216 217 217 216 219 222 226 232 233 230 228 229 233 239 244 245 246 250 254 257 260 263 265 267 273 280 287 292 297 301 304 306 308 312 317 320 322 323 324 326 328 330 332 334 336 338 340 342 343 344 345 346 346 347 347 348 348 348 349 349 350 351 352 352 353 354 355 356 357 359 360 1 2 3 3 4
212 211 211 211 211 212 213 214 215 216 217 217 219 221 223 225 230 232 231 230 231 234 240 246 246 248 252 255 256 259 262 262 266 274 281 286 291 296 300 302 304 306 310 314 317 318 320 322 324 325 327 329 330 332 334 336 338 339 340 341 342 343 344 344 344 344 344 344 345 346 346 347 348 349 350 350 352 353 354 356 357 358 359 360 0
213 211 211 212 212 213 214 215 216 217 218 218 220 223 225 226 227 229 231 233 235 237 242 246 247 250 253 253 254 257 260 261 267 274 281 286 291 296 299 302 303 305 307 310 312 314 316 319 321 323 325 326 327 328 330 332 333 335 336 337 338 340 341 341 341 341 340 340 341 342 342 343 344 345 346 346 347 348 350 351 352 353 354 355 356
214 212 211 212 213 215 216 217 219 219 220 221 223 225 227 228 227 227 229 233 237 241 244 246 248 251 253 253 253 254 256 261 268 274 279 286 291 295 298 301 303 304 305 306 307 310 313 316 318 320 322 323 324 325 327 328 330 331 332 333 335 336 337 338 338 338 338 338 338 338 339 339 340 340 341 342 343 344 345 346 347 348 349 350 351
215 213 212 213 215 217 218 219 220 221 223 224 226 227 229 230 229 228 229 232 236 240 243 246 249 252 253 252 252 253 255 261 268 273 278 286 291 294 297 300 301 302 303 303 305 308 311 313 316 318 320 321 322 323 324 326 327 328 329 330 332 333 334 335 335 336 336 336 336 336 336 337 337 337 337 338 339 339 340 341 342 343 344 345 346
215 214 214 215 217 218 219 220 222 224 225 227 228 229 229 230 231 231 232 234 236 239 241 245 249 251 252 252 252 254 257 261 266 272 278 284 288 291 294 296 298 300 301 303 305 308 310 312 315 317 318 319 320 322 323 324 325 326 326 328 329 330 332 333 333 333 333 333 333 334 335 334 334 334 334 335 335 336 336 337 338 339 340 341 341
216 216 217 218 219 220 221 222 223 225 226 228 229 229 230 231 232 233 234 236 238 239 242 245 247 248 249 251 252 254 258 262 267 273 279 284 287 289 292 294 296 297 298 301 303 306 308 311 313 315 316 317 318 319 321 321 322 323 324 325 327 328 329 330 330 330 330 330 331 331 332 332 332 332 332 333 333 333 334 334 335 336 337 337 338
218 218 218 219 220 221 222 224 224 225 227 229 229 229 230 232 233 234 235 237 240 242 244 245 245 245 247 249 251 255 259 263 268 273 278 282 285 289 291 293 294 295 297 298 301 303 305 307 310 311 313 314 316 317 318 319 320 321 322 323 325 326 326 327 328 328 328 328 329 329 330 330 331 331 331 331 331 331 332 332 332 333 334 335 335
219 218 219 220 221 222 223 225 226 227 228 228 228 229 230 231 232 233 237 240 243 244 244 244 244 245 246 249 252 255 258 263 267 272 276 280 284 287 290 291 292 293 295 297 299 300 302 304 306 308 309 310 313 315 316 317 318 319 320 321 322 323 324 325 325 326 327 327 328 328 328 329 329 330 330 329 329 329 329 329 330 331 331 332 333
219 220 221 222 223 224 225 226 227 228 228 227 228 230 231 231 232 235 239 242 243 244 243 242 243 245 246 249 252 254 257 262 267 271 275 279 283 286 288 289 290 291 293 295 297 298 300 302 304 305 305 307 309 311 312 314 315 315 316 317 318 320 321 322 323 324 325 325 326 326 326 327 327 327 328 328 327 327 327 327 327 328 328 329 330
221 222 223 223 224 225 225 226 227 228 228 228 230 231 231 231 233 237 241 243 243 242 241 241 243 244 246 248 251 253 257 263 268 272 275 279 282 284 285 287 288 290 292 294 296 297 299 301 302 303 303 304 306 308 309 310 311 312 312 313 315 316 318 320 321 321 322 323 323 324 324 324 324 324 324 324 324 324 324 324 324 324 325 325 325
224 224 223 223 224 225 225 227 228 228 229 230 232 232 232 233 236 238 241 241 241 240 239 239 241 243 245 247 249 252 258 264 269 273 276 279 281 283 283 285 287 289 291 294 296 297 299 300 300 301 302 303 304 305 307 308 309 309 311 312 313 314 316 317 318 319 320 320 320 320 321 321 321 321 320 320 320 321 321 321 321 321 321 321 321
225 224 224 224 224 225 227 228 228 230 231 233 234 234 234 235 238 240 240 239 237 236 236 236 239 243 246 248 250 254 259 265 270 274 278 280 282 283 283 284 287 289 290 292 294 296 298 299 299 299 299 300 302 303 305 306 308 309 310 311 312 313 314 315 316 317 317 317 317 318 318 318 319 318 318 318 318 318 318 317 317 317 317 316 316
225 225 225 225 226 228 229 230 231 232 233 234 234 234 235 236 238 239 238 235 233 232 234 236 240 245 248 250 253 257 262 266 271 275 278 280 282 283 284 285 287 289 290 291 293 295 296 297 297 297 298 299 301 303 305 306 307 308 309 309 311 311 312 313 314 315 315 315 316 316 316 316 317 317 317 317 317 316 315 315 314 314 314 313 313
228 228 228 228 229 230 230 231 233 234 234 235 235 235 235 235 235 234 234 233 231 231 235 239 244 247 250 252 255 259 263 267 271 275 277 279 281 283 285 287 288 290 291 292 293 295 295 295 295 296 297 299 302 304 306 306 307 307 308 308 309 310 311 312 313 314 314 315 315 315 315 316 316 316 316 316 315 314 314 313 313 312 311 311 311
230 230 230 230 230 231 232 233 235 236 236 236 235 234 233 233 231 230 230 231 231 233 238 242 246 249 251 254 257 260 264 268 271 274 276 279 281 283 286 288 289 290 291 292 294 295 295 294 294 295 297 300 303 305 306 307 307 308 308 309 310 311 313 314 314 314 314 314 315 315 315 315 315 315 315 314 314 313 312 312 311 311 310 309 309
231 230 230 230 231 232 234 236 236 236 235 234 233 231 231 230 229 228 229 231 234 237 241 244 247 250 252 254 257 261 265 269 271 273 276 278 281 283 286 288 289 290 292 293 294 295 295 294 294 295 298 300 303 304 306 307 308 308 310 311 312 313 314 314 315 315 315 314 314 314 314 314 314 314 313 313 312 312 311 311 310 310 309 308 308
233 232 231 231 232 234 235 236 235 233 232 232 230 229 228 228 228 229 230 233 236 239 242 245 248 250 252 254 258 262 266 269 272 274 277 279 282 284 286 287 289 290 291 293 295 296 297 297 297 298 300 301 303 305 306 307 308 309 310 311 313 313 314 314 314 315 314 314 314 313 313 313 312 312 312 311 311 310 310 310 310 309 309 308 308
235 234 233 233 234 235 235 234 232 231 230 230 229 227 227 228 229 230 233 236 238 240 242 245 248 250 252 256 260 263 266 269 272 275 278 281 284 286 286 287 288 290 292 294 296 297 298 298 299 299 301 302 304 305 306 307 308 309 310 311 312 313 313 313 313 313 313 313 313 312 312 311 311 311 310 310 310 310 310 309 309 309 308 307 307
236 234 233 232 233 233 232 231 230 228 228 229 229 227 226 227 229 232 235 237 239 240 242 245 248 250 253 257 260 263 267 270 273 276 280 283 284 284 285 286 288 290 293 295 296 297 297 298 299 300 301 302 304 305 306 307 308 309 310 311 312 312 312 312 312 312 312 312 312 312 312 311 311 310 310 310 310 309 309 309 308 308 307 307 306
236 233 232 231 231 230 229 228 228 228 228 228 227 226 226 228 230 233 235 237 238 240 243 246 249 251 254 257 261 265 269 272 274 277 280 282 282 283 284 286 289 291 293 295 296 297 297 298 299 300 301 302 303 304 305 306 307 308 310 311 311 312 312 312 312 312 312 313 312 312 312 311 311 310 310 310 309 309 308 308 307 307 307 306 306